Location: Franzen
(48.6167°N, 15.3833°E)
Time: 09:23:43
(UTC+00:00)

Meteor 1-5 Rocket - Pass Details

Date: 22 April 2021
Orbit: 789 x 915 km, 81.2° (Epoch: 16 May)

Event Time Altitude Azimuth Distance (km) Brightness Sun altitude
Rises 22:53:50 0° 346° (NNW) 3,476 8.5 -28.9°
Reaches altitude 10° 22:56:20 10° 344° (NNW) 2,515 7.5 -28.9°
Enters shadow 23:01:33 65° 292° (WNW) 926 4.3 -28.8°
